Regional Weather Roundup
Issued by NWS

Home | Current Version | Previous Version | Text Only | Print | Product List | Glossary On
Versions: 1 2 3 4 5 6 7 8 9 10 11 12 13 14 15 16 17 18 19 20 21 22 23 24 25 26 27
000
ASUS45 KBOU 082207
RWRCO

WEATHER ROUNDUP FOR COLORADO
NATIONAL WEATHER SERVICE DENVER/BOULDER CO
300 PM MST THU DEC 08 2016

NOTE: "FAIR" INDICATES FEW OR NO CLOUDS BELOW 12000 FEET WITH NO
SIGNIFICANT WEATHER AND/OR OBSTRUCTIONS TO VISIBILITY.

COZ001>005-013-030-031-082300-
...NORTHWEST COLORADO...

CITY           SKY/WX    TMP DP  RH WIND       PRES   REMARKS
CRAIG          CLOUDY    21   2  43 E12       30.22R WCI   9
HAYDEN         CLOUDY    18   1  49 E9        30.21R WCI   6
MEEKER         CLOUDY    23  12  62 CALM      30.18F
MOUNT WERNER   NOT AVBL
STEAMBOAT SPGS CLOUDY    14   1  57 CALM      30.20S
WALDEN           N/A     10   0  61 S3        30.14R
$$

COZ006>008-011-082300-
...WEST CENTRAL VALLEYS...

CITY           SKY/WX    TMP DP  RH WIND       PRES   REMARKS
GRAND JUNCTION CLOUDY    29   6  38 CALM      30.26F
MONTROSE       CLOUDY    29   8  41 CALM      30.27F
EAGLE          CLOUDY    21   3  45 CALM      30.25S
RIFLE          CLOUDY    24   5  44 CALM      30.27S
DELTA          NOT AVBL
NUCLA          CLOUDY    32   3  29 CALM      30.28S
$$

COZ017>023-064>068-082300-
...SOUTHWEST COLORADO...

CITY           SKY/WX    TMP DP  RH WIND       PRES   REMARKS
DURANGO        CLOUDY    34   7  32 CALM      30.28R
CORTEZ         CLOUDY    39  11  31 CALM      30.26F
PAGOSA SPRINGS PTSUNNY   32   5  32 S3        30.27S
TELLURIDE      FLURRIES  30  11  45 E6        30.24R WCI  24
WOLF CREEK PAS FAIR      12   1  62 SW22G30   30.22R WCI  -7
$$

COZ009-010-012-014-032>034-037-058>063-082300-
...CENTRAL COLORADO...

CITY           SKY/WX    TMP DP  RH WIND       PRES   REMARKS
ASPEN          NOT AVBL
BUENA VISTA    CLOUDY    32   1  27 NW14G28   30.10S WCI  22
COPPER MTN     LGT SNOW  14   7  73 MISG      30.06R VSB 3/4
BERTHOUD PASS  CLOUDY     1 -11  55 NW17G29   30.00R HAZE    WCI -19
COTTONWOOD PAS CLOUDY    25   3  39 W17G29    30.07R WCI  11
GUNNISON       FAIR      18   2  49 CALM      30.25F
KREMMLING      CLOUDY    14   1  57 CALM      30.22S
LEADVILLE      PTSUNNY   19   7  59 E5        30.07R WCI  12
MONARCH PASS   CLOUDY    10  -4  52 W31G44    30.21R WCI -12
SALIDA         CLOUDY    36   1  22 W6        30.20F
SUNLIGHT       LGT SNOW  10   9  92 SW17G28   30.13S VSB 1   WCI  -7
WILKERSON PASS FAIR      18   3  53 SW21G29   30.05R WCI   1
$$

COZ069>075-082300-
...SAN LUIS VALLEY/SANGRE DE CRISTO MOUNTAINS...

CITY           SKY/WX    TMP DP  RH WIND       PRES   REMARKS
ALAMOSA        FAIR      28   9  44 SW3       30.21S
LA VETA PASS   FAIR      23  12  63 NE25G39   30.12R WCI   7
SAGUACHE       FAIR      28   1  31 S7        30.22R WCI  21
$$

COZ035-036-038>040-082300-
...NORTHERN COLORADO FRONT RANGE...

CITY           SKY/WX    TMP DP  RH WIND       PRES   REMARKS
DENVER INTL AP FAIR      18   9  68 N5        30.27S WCI  11
DMNS CITY PARK   N/A     15   6  67 N6        30.30R WCI   6
AURORA         PTSUNNY   19  10  67 N7        30.26R WCI  10
FRONT RANGE AP NOT AVBL
ERIE MUNI ARPT FAIR      13   6  74 N6        30.32R WCI   4
BOULDER MUN AP FLURRIES  10   5  79 N3        30.30S
CENTENNIAL     PTSUNNY   18   9  68 N7        30.23S WCI   9
BROOMFIELD     NOT AVBL
FORT COLLINS   FAIR      10   1  67 CALM      30.34S
LONGMONT       FAIR      14   4  64 N5        30.35R WCI   7
$$

COZ041-046-047-076>085-087-088-082300-
...PIKES PEAK/PALMER DIVIDE AND SOUTHERN FOOTHILLS...

CITY           SKY/WX    TMP DP  RH WIND       PRES   REMARKS
COLO. SPRINGS  LGT SNOW  12   7  80 S13       30.28S WCI  -3
A. F. ACADEMY  CLOUDY    12   5  73 S13       30.22F WCI  -3
SCHRIEVER AFB  NOT AVBL
ELLICOTT       CLOUDY   N/A N/A N/A S13         N/A
FALCON         LGT SNOW  11   5  76 S14       30.23F WCI  -5
FORT CARSON    LGT SNOW  14   9  81 SE10      30.27F WCI   1
LIMON          FAIR      17   4  56 S14       30.32F WCI   3
MONUMENT HILL  FAIR      10   3  72 S18       30.18F WCI  -8
TRINIDAD       FAIR      25   7  46 VRB6      30.27F WCI  18
$$

COZ042>045-048>051-090-091-082300-
...NORTHEAST COLORADO...

CITY           SKY/WX    TMP DP  RH WIND       PRES   REMARKS
GREELEY ARPT   FAIR      12   3  67 CALM      30.37R
AKRON          FAIR      14   4  64 SE12      30.36F WCI   0
BURLINGTON     FAIR      20   3  48 SE9       30.44S WCI   9
WRAY           FAIR      19   3  49 CALM      30.48F
STERLING       FAIR      16   5  62 SE3       30.42S
HOLYOKE        FAIR      21   3  45 CALM      30.47S
FORT MORGAN    PTSUNNY   14   5  67 E8        30.37R WCI   3
$$

COZ086-089-092>099-082300-
...SOUTHEAST COLORADO...

CITY           SKY/WX    TMP DP  RH WIND       PRES   REMARKS
PUEBLO         CLOUDY    21   7  54 VRB3      30.35F
LA JUNTA       FAIR      28   7  41 SE14      30.38F WCI  17
LAMAR          FAIR      25  -1  32 E12       30.45F WCI  14
SPRINGFIELD      N/A     20   1  43 S14       30.42R WCI   7
$$




USA.gov is the U.S. government's official web portal to all federal, state and local government web resources and services.